Regional Weather Roundup
Issued by NWS Cleveland, OH

Home | Current Version | Previous Version | Graphics & Text | Print | Product List | Glossary On
Versions: 1 2 3 4 5 6 7 8 9 10 11 12 13 14 15 16 17 18 19 20 21 22 23 24 25 26 27 28 29 30 31 32 33 34 35 36 37 38 39 40 41 42 43 44 45 46 47 48 49 50
000
ASUS41 KCLE 230210
RWRCLE
OHIO REGIONAL WEATHER ROUNDUP
NATIONAL WEATHER SERVICE CLEVELAND, OH
1000 PM EDT SUN OCT 22 2017

NOTE: "FAIR" INDICATES FEW OR NO CLOUDS BELOW 12,000 FEET WITH NO
SIGNIFICANT WEATHER AND/OR OBSTRUCTIONS TO VISIBILITY.

OHZ001>008-015>018-024>027-034-035-043-044-230300-
   NORTHWEST OHIO

CITY           SKY/WX    TMP DP  RH WIND       PRES   REMARKS
DEFIANCE       CLOUDY    69  50  50 S10       30.04F
FINDLAY        CLOUDY    63  46  54 S10       30.07S
TOLEDO EXPRESS MOCLDY    68  51  54 S9        30.05S
TOLEDO EXEC    CLOUDY    66  51  58 S9        30.07S
LIMA           CLOUDY    63  48  58 SE8       30.07F
$$

OHZ009>014-019>023-028>033-038-089-230300-
   NORTHEAST OHIO

CITY           SKY/WX    TMP DP  RH WIND       PRES   REMARKS
CLE-HOPKINS    CLOUDY    64  49  57 S7        30.13S
CLE-LAKEFRONT  CLOUDY    69  49  48 S13       30.10S
CUY CO. ARPT   MOCLDY    70  52  52 SE12      30.13S
LORAIN-ELYRIA  NOT AVBL
ASHTABULA      PTCLDY    65  51  60 SE6       30.15S
AKRON-CANTON   CLOUDY    62  48  60 S7        30.14F
WOOSTER        MOCLDY    51  48  89 CALM      30.13F
MANSFIELD      PTCLDY    63  50  62 S10       30.12F
YOUNGSTOWN     CLOUDY    62  50  64 SE9       30.16S
$$

OHZ042-051>053-060>062-070>072-077>081-230300-
  SOUTHWEST OHIO

CITY           SKY/WX    TMP DP  RH WIND       PRES   REMARKS
CINC-COVINGTON CLOUDY    67  53  61 SE14      30.06F
CINC-LUNKEN    MOCLDY    58  55  90 CALM      30.07F
HAMILTON       CLOUDY    65  52  62 CALM      30.07F
DAYTON         CLOUDY    63  51  65 SE9       30.08F
WRIGHT-PAT AFB MOCLDY    65  47  52 SE8       30.08F
DAYTON GENERAL CLOUDY    67  48  50 SE10      30.07F
WILMINGTON     PTCLDY    61  50  67 SE6       30.10F
$$

OHZ036-037-039>041-045>050-054>059-063>069-073>076-082>088-230300-
  CENTRAL AND SOUTHEAST OHIO

CITY           SKY/WX    TMP DP  RH WIND       PRES   REMARKS
COLUMBUS       CLOUDY    65  53  65 S5        30.11F
OSU AIRPORT    CLOUDY    65  51  60 SE7       30.11F
BOLTON FIELD   CLOUDY    61  49  65 SE3       30.12F
RICKENBACK AFB CLOUDY    60  51  71 SE6       30.11S
NEWARK         CLOUDY    56  51  84 CALM      30.12F
MARION         PTCLDY    63  49  60 S10       30.10F
LANCASTER      CLOUDY    54  51  90 SE6       30.13S
ZANESVILLE     CLOUDY    58  50  75 CALM      30.13F
NEW PHILLY     NOT AVBL
$$




USA.gov is the U.S. government's official web portal to all federal, state and local government web resources and services.